ATLAS 5 CENTAUR DEB, 44666

Orbit data source: Space-Track

ATLAS 5 CENTAUR DEB, 44666 is space debris in HEO originally from a launch on Wed, 17 Oct 2018 UTC launched from the Air Force Eastern Test Range (AFETR). Debris objects in space refer to the collection of defunct objects orbiting the Earth. Examples of debris include non-operational satellites, rocket bodies, and fragments generated from explosions, collisions, or faulty payload assembly.

Loading next visibility...
Identifier
44666, 2018-079AC
Orbit
HEO
Country
Flag of USUS
Related business
Flag of USUnited Launch Alliance/Lockheed Martin (US)
Manufacturer
ULA Decatur
Mission
Spacecraft
Bus & Motor
Unknown
Mass
Unknown
Launch date (UTC)
2018-10-17 (8 years ago)
Launch vehicle
Unknown
Launch site
Air Force Eastern Test Range (AFETR)
Object type
Payload
Rocket body
Debris
Shape & HBR
Unknown shape, 1.1 m
Radar Cross Section
Medium (>0.1 m² and <1 m²)

Expand to show TLE details & history
Last TLE update: 6 days ago

TLE from 6 days ago
0 ATLAS 5 CENTAUR DEB
1 44666U 18079AC  26230.69145928 -.00000132  00000-0  00000-0 0  9995
2 44666  13.1408  24.5389 4455885 346.5690   4.5356  1.90653473 50217
Epoch: 2026-08-18T16:35Z
TLE epoch observation values (Epoch: 2026-08-18T16:35:42.081Z)
Latitude
-0.00003°
Longitude
168.58098°
Altitude
8,984.209 km
Speed
6.114 km/s
True Right ascension
01h 38m 14s
True Declination
0° 00' 00"
Sunlit
Object was in daylight at epoch
Visualization orbit readout
Latitude
Unknown
Longitude
Unknown
Altitude
Unknown
Speed
Unknown
Apparent Right ascension
Unknown
Apparent Declination
Unknown
Sunlit
N/A
Visualization observer readout
Local Sidereal Time
17:07:32
Azimuth
Unknown
Elevation
Unknown
Doppler factor
Unknown
Orbital elements
Apogee altitude
33,339.454 km
Perigee altitude
8,854.337 km
Semi-major axis
27,475.032 km
Eccentricity
0.44559
Inclination
13.1408°
RAAN
24.5389°
Arg. of periapsis
346.569°
True anomaly
13.13886°
Mean anomaly
4.5356°
Eccentric anomaly
8.15879°
Mean motion
0.47658 °/min
Orbital period
755.38 mins
BSTAR
0
Loading maneuver chart data...
Computing Atmospheric mass density...

Documentation

Showing up to 5 results
|